TimeMST,TemperatureF,Dew PointF,Humidity,Sea Level PressureIn,VisibilityMPH,Wind Direction,Wind SpeedMPH,Gust SpeedMPH,PrecipitationIn,Events,Conditions,WindDirDegrees,DateUTC
12:54 AM,-2.0,-6.0,83,30.34,10.0,Calm,Calm,-,N/A,,Clear,0,2013-12-11 07:54:00
1:54 AM,7.0,3.0,84,30.31,10.0,Calm,Calm,-,N/A,,Clear,0,2013-12-11 08:54:00
2:54 AM,19.0,6.1,57,30.26,10.0,SW,16.1,-,N/A,,Clear,230,2013-12-11 09:54:00
3:54 AM,19.0,6.1,57,30.26,10.0,SW,13.8,-,N/A,,Clear,220,2013-12-11 10:54:00
4:54 AM,17.1,5.0,59,30.25,10.0,SW,13.8,-,N/A,,Clear,220,2013-12-11 11:54:00
5:54 AM,21.0,6.1,53,30.24,10.0,SW,15.0,-,N/A,,Clear,230,2013-12-11 12:54:00
6:54 AM,21.0,7.0,55,30.27,10.0,SW,16.1,-,N/A,,Clear,230,2013-12-11 13:54:00
7:54 AM,19.9,8.1,60,30.27,10.0,SW,13.8,-,N/A,,Clear,230,2013-12-11 14:54:00
8:54 AM,26.1,10.9,53,30.26,10.0,SW,17.3,-,N/A,,Clear,230,2013-12-11 15:54:00
9:54 AM,28.9,12.9,51,30.27,5.0,SW,15.0,-,N/A,,Haze,230,2013-12-11 16:54:00
10:54 AM,30.9,14.0,50,30.28,10.0,WSW,15.0,-,N/A,,Clear,250,2013-12-11 17:54:00
11:54 AM,34.0,16.0,48,30.27,10.0,WSW,16.1,-,N/A,,Clear,250,2013-12-11 18:54:00
12:54 PM,34.0,17.1,50,30.26,10.0,WSW,13.8,-,N/A,,Clear,240,2013-12-11 19:54:00
1:54 PM,34.0,17.1,50,30.23,10.0,West,16.1,-,N/A,,Clear,260,2013-12-11 20:54:00
2:54 PM,30.9,16.0,54,30.21,10.0,WSW,12.7,-,N/A,,Clear,250,2013-12-11 21:54:00
3:54 PM,30.0,15.1,54,30.22,10.0,SW,13.8,-,N/A,,Clear,230,2013-12-11 22:54:00
4:54 PM,23.0,12.9,65,30.25,10.0,SW,11.5,-,N/A,,Clear,230,2013-12-11 23:54:00
5:54 PM,28.9,12.9,51,30.21,10.0,SW,17.3,-,N/A,,Clear,230,2013-12-12 00:54:00
6:54 PM,30.9,14.0,50,30.20,10.0,SW,16.1,-,N/A,,Partly Cloudy,230,2013-12-12 01:54:00
7:54 PM,30.9,15.1,52,30.19,10.0,SW,17.3,-,N/A,,Clear,230,2013-12-12 02:54:00
8:54 PM,30.9,15.1,52,30.16,10.0,SW,18.4,-,N/A,,Partly Cloudy,230,2013-12-12 03:54:00
9:54 PM,36.0,19.0,50,30.14,10.0,SW,18.4,-,N/A,,Overcast,230,2013-12-12 04:54:00
10:54 PM,35.1,21.0,57,30.15,10.0,WSW,24.2,32.2,N/A,,Overcast,240,2013-12-12 05:54:00
11:54 PM,35.1,23.0,61,30.14,10.0,WSW,20.7,-,N/A,,Mostly Cloudy,250,2013-12-12 06:54:00